Погода Баяндай

Погода Баяндай : погода сейчас, прогноз погоды и архив. Всё, что Вы хотите узнать о погоде Баяндай!

Хотите узнать прогноз погоды Баяндай? Тогда Вам сюда: Погода Баяндай

Поиск расширенной информации на нашем сайте:

Другие новости

Новости СМИ2

Главная страница сайта

Новости сайта

03.07.2017

Напоминаем, что на нашем специализированном сайте Метеоцентр.Азия вы можете получить высокодетализированные автоматические прогнозы погоды по пунктам России, СНГ и мира в авиационном формате (включающие направление и скорость ветра, видимость, явления погоды, количество и форму облачности, нижнюю и верхнюю границу облачности).


Погода Баяндай - сегодня

Время (UTC), дата Ветер
(°,м/с) 
Видим.   Явления Облачность Т
(°С)
Тd
(°С)
f(%) Тe
(°С)
Pmin
(гПа)
dP
(гПа)
Po
(мм)
O2
(г/м3)
Тmin Tmax R s Состояние
почвы
21 14.02.18 210 (ЮЗ) 20000 м    ясно 
-23.7 -25 89 -24  1031.8  0.6  698  310           
00 15.02.18 тихо ()   20000 м    3/0 верхняя 
[Ci fib]
-24.5 -26.9 80 -25  1033.2  699  311  -24.6    0.0  26  равномерный
сухой снег
100% 
03 15.02.18 200 (Ю) 20000 м    ясно 
-22.5 -23.7 90 -25  1033.5  0.9  699  309           
06 15.02.18 210 (ЮЗ) 20000 м    ясно 
-19.6 -24.2 67 -22  1031.7  -0.5  699  305           
09 15.02.18 210 (ЮЗ) 20000 м    ясно 
-18.9 -23.9 65 -19  1031.3  0.1  699  304           
12 15.02.18 020 (С) 20000 м    ясно 
-20.8 -22.7 85 -25  1031.9  -0.2  699  306    -17.5       
15 15.02.18 020 (С) 20000 м    ясно 
-20.8 -24.8 70 -25  1031.2  -0.7  698  306           
18 15.02.18 020 (С) 20000 м    ясно 
-23.2 -26.1 77 -29  1031.2  -0.9  698  309           
21 15.02.18 030 (СВ) 20000 м    ясно 
-25.5 -28.6 75 -32  1030.9  -1.1  697  311           
00 16.02.18 030 (СВ) 20000 м    ясно 
-27.8 -31.3 72 -33  1032  -0.1  697  314  -27.8      26  равномерный
сухой снег
100% 
03 16.02.18 040 (СВ) 20000 м    6/0 верхняя 
[Ci fib]
-25 -26.2 90 -31  1031.5  0.6  697  311  -28.5         
06 16.02.18 040 (СВ) 20000 м    8/0 верхняя 
[Ci fib]
-20.8 -22 90 -25  1029.3  -0.4  697  306           
09 16.02.18 050 (СВ) 20000 м    9/0 верхняя 
[Ci fib]
-17.6 -25.1 52 -18  1027.9  0.1  697  302           
12 16.02.18 тихо ()   20000 м    6/0 верхняя 
[Ci fib]
-18.6 -21.2 80 -19  1029.1  0.8  698  303    -17.6       
15 16.02.18 240 (ЮЗ) 20000 м    4/0 верхняя 
[Ci fib]
-19.5 -22.1 80 -20  1030.3  0.7  698  304           
18 16.02.18 250 (З) 20000 м    ясно 
-22 -25.1 76 -25  1032  0.6  699  308           
21 16.02.18 230 (ЮЗ) 20000 м    10/0 верхняя 
[Cs]
-25.2 -28 77 -26  1034.1  0.7  699  312           
00 17.02.18 200 (Ю) 20000 м    10/0 верхняя 
[Cs]
-24.6 -27.9 74 -28  1035.5  1.5  700  312  -25.4      26  равномерный
сухой снег
100% 
03 17.02.18 220 (ЮЗ) 20000 м  {снег}  10/0 верхняя 
[Cs]
-21.6 -22.8 90 -26  1036.3  1.9  702  308           
06 17.02.18 230 (ЮЗ) 20000 м  {снег}  10/0 верхняя 
[Cs]
-17.6 -18.8 90 -22  1035.2  0.6  702  304           
09 17.02.18 250 (З) 20000 м  {снег}  3/0 верхняя 
[Ci fib]
-13.5 -16.2 80 -16  1033.8  0.1  702  299           
12 17.02.18 200 (Ю) 20000 м  {снег}  6/0 верхняя 
[Ci fib]
-20.4 -21.6 90 -21  1038.3  1.6  703  308    -13.3  0.3     
15 17.02.18 230 (ЮЗ) 20000 м  слаб. снег  10/0 верхняя 
[Cs]
-18.8 -19.4 95 -21  1038.5  0.7  704  306           
18 17.02.18 200 (Ю) 20000 м  {снег}  10/0 верхняя 
[Cs]
-22.1 -22.8 94 -25  1040.1  0.3  704  310           
21 17.02.18 270 (З) 20000 м    5/0 верхняя 
[Ci fib]
-22.6 -23.2 95 -26  1040.4  704  311           
Время (UTC), дата Ветер
(°,м/с) 
Видим.   Явления Облачность Т
(°С)
Тd
(°С)
f(%) Тe
(°С)
Pmin
(гПа)
dP
(гПа)
Po
(мм)
O2
(г/м3)
Тmin Tmax R s Состояние
почвы

Для получения пояснительной информации подведите курсор к названию столбца.

ПОГОДА Баяндай - архив

Всё, что Вы хотите узнать о погоде Баяндай - удобно и подробно!

Выберите нужную дату (начиная с 1 января 2015* года) и нажмите кнопку "Найти".
Будут отображены архивные сводки погоды по пункту Баяндай, начиная с указанной даты.


Отображать данные в формате CSV (для использования в таблицах Excel)


Внимание! Наш архив погоды предназначен исключительно для личного некоммерческого использования в познавательных целях. Если Вам необходимы официальные справки о состоянии погоды (для производственных, юридических, коммерческих и т.п. целей), обращайтесь в органы Росгидромета.

*Примечание: данная дата относится к архиву по метеостанциям СССР (Россия, СНГ, Балтия).
Архив по метеостанциям Зарубежной Европы и Азии (кроме Китая) хранится 10 дней, по другим регионам земного шара (Китай, Африка, Америка, Австралия, Океания) - 1 день.

Баяндай - район местоположения метеостанции


Название, широта, долгота, высота метеостанции:
Баяндай 53.1°ш. 105.5°д. 762 м над ур. моря [Российская Федерация]

Дополнительная информация

В oтличие oт бoльшинства пoгoдных сайтoв мы публикуем пoдрoбную метеoинфoрмацию в детальнoм прoфессиoнальнoм фoрмате.

Характеристики температуры и влажнoсти вoздуха измеряются на высoте 2 м в тени вдали oт зданий и деревьев.
Скoрoсть ветра измеряется на высoте 10 м (на урoвне рoста челoвека скoрoсть ветра ниже в 1.5-2 раза). Если метеoстанция нахoдится в гoрoде или в лесу, тo скoрoсть ветра занижена на 2-4 м/с пo сравнению с oткрытым местoм. Скoрoсть ветра над акватoриями крупных рек и oзёр, а также на вершинах хoлмoв на 2-5 м/с выше, чем в oбычных услoвиях.
Атмoсфернoе давление в разных тoчках местнoсти мoжет значительнo oтличаться oт давления на метеoстанции, в зависимoсти oт услoвий рельефа (при пoдъёме на 10 м давление пoнижается примернo на 1 мм рт.ст.).